Time,TemperatureF,DewpointF,PressureIn,WindDirection,WindDirectionDegrees,WindSpeedMPH,WindSpeedGustMPH,Humidity,HourlyPrecipIn,Conditions,Clouds,dailyrainin,SolarRadiationWatts/m^2,SoftwareType,DateUTC
2013-03-08 00:00:00,65.1,62.0,30.07,ESE,106,2.0,-999.0,89,-99.99,,,0.00,0,weatherlink.com 1.10,2013-03-08 06:00:00,
2013-03-08 00:15:00,65.1,62.0,30.06,SE,129,0.0,-999.0,90,-99.99,,,0.00,0,weatherlink.com 1.10,2013-03-08 06:15:00,
2013-03-08 00:30:00,65.0,62.0,30.06,SSE,147,5.0,-999.0,91,-99.99,,,0.00,0,weatherlink.com 1.10,2013-03-08 06:30:00,
2013-03-08 00:45:00,64.9,62.0,30.06,ESE,107,4.0,-999.0,91,-99.99,,,0.00,0,weatherlink.com 1.10,2013-03-08 06:45:00,
2013-03-08 01:00:00,65.1,63.0,30.06,East,93,3.0,-999.0,92,-99.99,,,0.00,0,weatherlink.com 1.10,2013-03-08 07:00:00,
2013-03-08 01:15:00,65.2,63.0,30.06,SE,133,3.0,-999.0,92,-99.99,,,0.00,0,weatherlink.com 1.10,2013-03-08 07:15:00,
2013-03-08 01:30:00,65.5,63.0,30.05,SSE,150,3.0,-999.0,92,-99.99,,,0.00,0,weatherlink.com 1.10,2013-03-08 07:30:00,
2013-03-08 01:45:00,65.6,63.0,30.04,South,171,3.0,-999.0,92,-99.99,,,0.00,0,weatherlink.com 1.10,2013-03-08 07:45:00,
2013-03-08 02:00:00,65.6,63.0,30.03,South,170,6.0,-999.0,91,-99.99,,,0.00,0,weatherlink.com 1.10,2013-03-08 08:00:00,
2013-03-08 02:15:00,65.4,63.0,30.03,SSE,152,3.0,-999.0,91,-99.99,,,0.00,0,weatherlink.com 1.10,2013-03-08 08:15:00,
2013-03-08 02:30:00,65.3,63.0,30.02,ESE,107,1.0,-999.0,92,-99.99,,,0.00,0,weatherlink.com 1.10,2013-03-08 08:30:00,
2013-03-08 03:00:00,65.2,63.0,30.02,SSE,159,2.0,-999.0,92,-99.99,,,0.00,0,weatherlink.com 1.10,2013-03-08 09:00:00,
2013-03-08 03:15:00,65.2,63.0,30.01,ESE,110,5.0,-999.0,92,-99.99,,,0.00,0,weatherlink.com 1.10,2013-03-08 09:15:00,
2013-03-08 03:30:00,65.2,63.0,30.01,SSE,159,2.0,-999.0,93,-99.99,,,0.00,0,weatherlink.com 1.10,2013-03-08 09:30:00,
2013-03-08 03:45:00,65.4,63.0,30.00,ESE,108,3.0,-999.0,93,-99.99,,,0.00,0,weatherlink.com 1.10,2013-03-08 09:45:00,
2013-03-08 04:00:00,65.6,64.0,30.00,South,180,3.0,-999.0,93,-99.99,,,0.00,0,weatherlink.com 1.10,2013-03-08 10:00:00,
2013-03-08 04:15:00,65.8,64.0,30.00,SSE,150,2.0,-999.0,93,-99.99,,,0.00,0,weatherlink.com 1.10,2013-03-08 10:15:00,
2013-03-08 04:30:00,65.9,64.0,30.00,ENE,61,3.0,-999.0,92,-99.99,,,0.00,0,weatherlink.com 1.10,2013-03-08 10:30:00,
2013-03-08 04:45:00,66.1,64.0,29.99,SE,126,4.0,-999.0,92,-99.99,,,0.00,0,weatherlink.com 1.10,2013-03-08 10:45:00,
2013-03-08 05:00:00,66.2,64.0,29.99,ESE,113,4.0,-999.0,91,-99.99,,,0.00,0,weatherlink.com 1.10,2013-03-08 11:00:00,
2013-03-08 05:15:00,66.3,64.0,30.00,SE,139,3.0,-999.0,91,-99.99,,,0.00,0,weatherlink.com 1.10,2013-03-08 11:15:00,
2013-03-08 05:30:00,66.6,64.0,30.01,SW,236,2.0,-999.0,91,-99.99,,,0.00,0,weatherlink.com 1.10,2013-03-08 11:30:00,
2013-03-08 05:45:00,66.7,64.0,30.02,SE,140,7.0,-999.0,90,-99.99,,,0.00,0,weatherlink.com 1.10,2013-03-08 11:45:00,
2013-03-08 06:00:00,66.8,64.0,30.01,East,82,3.0,-999.0,90,-99.99,,,0.00,0,weatherlink.com 1.10,2013-03-08 12:00:00,
2013-03-08 06:15:00,66.6,64.0,30.01,NNE,15,4.0,-999.0,90,-99.99,,,0.00,0,weatherlink.com 1.10,2013-03-08 12:15:00,
2013-03-08 06:30:00,66.6,64.0,30.01,East,96,6.0,-999.0,91,-99.99,,,0.00,0,weatherlink.com 1.10,2013-03-08 12:30:00,
2013-03-08 06:45:00,66.7,64.0,30.01,SE,138,2.0,-999.0,91,-99.99,,,0.00,0,weatherlink.com 1.10,2013-03-08 12:45:00,
2013-03-08 07:00:00,66.7,64.0,30.02,South,176,3.0,-999.0,91,-99.99,,,0.00,9,weatherlink.com 1.10,2013-03-08 13:00:00,
2013-03-08 07:15:00,66.9,64.0,30.03,SSE,148,2.0,-999.0,91,-99.99,,,0.00,18,weatherlink.com 1.10,2013-03-08 13:15:00,
2013-03-08 07:30:00,67.2,64.0,30.02,SSE,147,6.0,-999.0,90,-99.99,,,0.00,23,weatherlink.com 1.10,2013-03-08 13:30:00,
2013-03-08 07:45:00,67.3,64.0,30.02,East,90,1.0,-999.0,90,-99.99,,,0.00,37,weatherlink.com 1.10,2013-03-08 13:45:00,
2013-03-08 08:00:00,67.7,65.0,30.03,ESE,103,5.0,-999.0,90,-99.99,,,0.00,62,weatherlink.com 1.10,2013-03-08 14:00:00,
2013-03-08 08:15:00,68.3,65.0,30.04,SE,145,3.0,-999.0,89,-99.99,,,0.00,86,weatherlink.com 1.10,2013-03-08 14:15:00,
2013-03-08 08:30:00,68.9,65.0,30.03,SSE,148,6.0,-999.0,88,-99.99,,,0.00,132,weatherlink.com 1.10,2013-03-08 14:30:00,
2013-03-08 08:45:00,69.3,65.0,30.03,NE,49,6.0,-999.0,87,-99.99,,,0.00,102,weatherlink.com 1.10,2013-03-08 14:45:00,
2013-03-08 09:00:00,69.4,65.0,30.03,South,186,2.0,-999.0,87,-99.99,,,0.00,149,weatherlink.com 1.10,2013-03-08 15:00:00,
2013-03-08 09:16:00,69.8,66.0,30.05,SE,134,6.0,-999.0,86,-99.99,,,0.00,127,weatherlink.com 1.10,2013-03-08 15:16:00,
2013-03-08 09:30:00,70.0,66.0,30.04,SE,132,1.0,-999.0,86,-99.99,,,0.00,132,weatherlink.com 1.10,2013-03-08 15:30:00,
2013-03-08 09:45:00,70.1,66.0,30.04,SE,136,6.0,-999.0,86,-99.99,,,0.00,134,weatherlink.com 1.10,2013-03-08 15:45:00,
2013-03-08 10:01:00,70.3,66.0,30.05,SSE,158,6.0,-999.0,85,-99.99,,,0.00,148,weatherlink.com 1.10,2013-03-08 16:01:00,
2013-03-08 10:16:00,70.6,66.0,30.04,SE,131,9.0,-999.0,85,-99.99,,,0.00,160,weatherlink.com 1.10,2013-03-08 16:16:00,
2013-03-08 10:31:00,70.9,66.0,30.06,East,98,2.0,-999.0,85,-99.99,,,0.00,250,weatherlink.com 1.10,2013-03-08 16:31:00,
2013-03-08 10:46:00,71.5,66.0,30.06,SE,131,10.0,-999.0,83,-99.99,,,0.00,274,weatherlink.com 1.10,2013-03-08 16:46:00,
2013-03-08 11:01:00,72.4,67.0,30.06,South,171,4.0,-999.0,82,-99.99,,,0.00,410,weatherlink.com 1.10,2013-03-08 17:01:00,
2013-03-08 11:16:00,72.5,66.0,30.05,SSW,213,3.0,-999.0,81,-99.99,,,0.00,323,weatherlink.com 1.10,2013-03-08 17:16:00,
2013-03-08 11:31:00,72.9,67.0,30.04,SE,133,11.0,-999.0,81,-99.99,,,0.00,371,weatherlink.com 1.10,2013-03-08 17:31:00,
2013-03-08 11:46:00,73.7,67.0,30.04,ESE,118,5.0,-999.0,80,-99.99,,,0.00,745,weatherlink.com 1.10,2013-03-08 17:46:00,
2013-03-08 12:01:00,75.7,67.0,30.03,SE,140,15.0,-999.0,75,-99.99,,,0.00,605,weatherlink.com 1.10,2013-03-08 18:01:00,
2013-03-08 12:16:00,74.8,66.0,30.02,East,94,4.0,-999.0,75,-99.99,,,0.00,381,weatherlink.com 1.10,2013-03-08 18:16:00,
2013-03-08 12:31:00,74.5,67.0,30.01,SE,136,12.0,-999.0,77,-99.99,,,0.00,540,weatherlink.com 1.10,2013-03-08 18:31:00,
2013-03-08 12:46:00,76.0,68.0,30.00,SSE,155,3.0,-999.0,75,-99.99,,,0.00,837,weatherlink.com 1.10,2013-03-08 18:46:00,
2013-03-08 13:01:00,75.3,67.0,29.99,SSE,159,6.0,-999.0,75,-99.99,,,0.00,645,weatherlink.com 1.10,2013-03-08 19:01:00,
2013-03-08 13:16:00,74.9,67.0,29.99,ESE,119,5.0,-999.0,76,-99.99,,,0.00,424,weatherlink.com 1.10,2013-03-08 19:16:00,
2013-03-08 13:31:00,76.1,67.0,29.98,SSE,164,6.0,-999.0,73,-99.99,,,0.00,896,weatherlink.com 1.10,2013-03-08 19:31:00,
2013-03-08 13:46:00,75.8,67.0,29.98,ESE,121,12.0,-999.0,74,-99.99,,,0.00,837,weatherlink.com 1.10,2013-03-08 19:46:00,
2013-03-08 14:01:00,75.0,67.0,29.97,SSE,167,6.0,-999.0,75,-99.99,,,0.00,323,weatherlink.com 1.10,2013-03-08 20:01:00,
2013-03-08 14:16:00,74.4,66.0,29.97,SE,130,12.0,-999.0,76,-99.99,,,0.00,445,weatherlink.com 1.10,2013-03-08 20:16:00,
2013-03-08 14:31:00,74.7,67.0,29.98,SE,131,6.0,-999.0,76,-99.99,,,0.00,605,weatherlink.com 1.10,2013-03-08 20:31:00,
2013-03-08 14:46:00,74.5,67.0,29.98,SSE,153,4.0,-999.0,77,-99.99,,,0.00,464,weatherlink.com 1.10,2013-03-08 20:46:00,
2013-03-08 15:01:00,74.8,66.0,29.97,South,191,9.0,-999.0,75,-99.99,,,0.00,366,weatherlink.com 1.10,2013-03-08 21:01:00,
2013-03-08 15:16:00,73.6,66.0,29.97,ESE,113,5.0,-999.0,77,-99.99,,,0.00,369,weatherlink.com 1.10,2013-03-08 21:16:00,
2013-03-08 15:31:00,73.6,66.0,29.98,SE,132,14.0,-999.0,76,-99.99,,,0.00,308,weatherlink.com 1.10,2013-03-08 21:31:00,
2013-03-08 15:46:00,73.0,65.0,29.98,SE,141,7.0,-999.0,77,-99.99,,,0.00,183,weatherlink.com 1.10,2013-03-08 21:46:00,
2013-03-08 16:01:00,72.1,65.0,29.99,ENE,59,5.0,-999.0,78,-99.99,,,0.00,86,weatherlink.com 1.10,2013-03-08 22:01:00,
2013-03-08 16:16:00,71.3,65.0,29.99,SSE,156,9.0,-999.0,80,-99.99,,,0.00,54,weatherlink.com 1.10,2013-03-08 22:16:00,
2013-03-08 16:31:00,70.6,65.0,29.98,ESE,103,3.0,-999.0,81,-99.99,,,0.00,46,weatherlink.com 1.10,2013-03-08 22:31:00,
2013-03-08 16:46:00,70.2,65.0,29.97,SSE,163,5.0,-999.0,82,-99.99,,,0.00,63,weatherlink.com 1.10,2013-03-08 22:46:00,
2013-03-08 17:01:00,70.1,64.0,29.98,SE,144,4.0,-999.0,81,-99.99,,,0.00,46,weatherlink.com 1.10,2013-03-08 23:01:00,
2013-03-08 17:16:00,69.9,64.0,29.99,ESE,119,10.0,-999.0,82,-99.99,,,0.00,28,weatherlink.com 1.10,2013-03-08 23:16:00,
2013-03-08 17:31:00,69.7,64.0,29.98,SSE,163,7.0,-999.0,83,-99.99,,,0.00,26,weatherlink.com 1.10,2013-03-08 23:31:00,
2013-03-08 17:46:00,69.5,64.0,29.98,ESE,123,3.0,-999.0,83,-99.99,,,0.00,14,weatherlink.com 1.10,2013-03-08 23:46:00,
2013-03-08 18:01:00,69.2,64.0,30.00,SSE,155,5.0,-999.0,83,-99.99,,,0.00,9,weatherlink.com 1.10,2013-03-09 00:01:00,
2013-03-08 18:16:00,68.9,64.0,29.99,SSE,161,3.0,-999.0,84,-99.99,,,0.00,0,weatherlink.com 1.10,2013-03-09 00:16:00,
2013-03-08 18:31:00,68.6,64.0,30.00,SE,138,0.0,-999.0,84,-99.99,,,0.00,0,weatherlink.com 1.10,2013-03-09 00:31:00,
2013-03-08 18:46:00,68.4,64.0,30.00,ESE,116,4.0,-999.0,85,-99.99,,,0.00,0,weatherlink.com 1.10,2013-03-09 00:46:00,
2013-03-08 19:01:00,68.3,64.0,29.99,ESE,103,2.0,-999.0,85,-99.99,,,0.00,0,weatherlink.com 1.10,2013-03-09 01:01:00,
2013-03-08 19:16:00,68.2,64.0,29.98,SE,124,4.0,-999.0,85,-99.99,,,0.00,0,weatherlink.com 1.10,2013-03-09 01:16:00,
2013-03-08 19:31:00,68.3,64.0,29.96,SE,146,9.0,-999.0,85,-99.99,,,0.00,0,weatherlink.com 1.10,2013-03-09 01:31:00,
2013-03-08 19:46:00,68.3,64.0,29.97,ESE,116,3.0,-999.0,85,-99.99,,,0.00,0,weatherlink.com 1.10,2013-03-09 01:46:00,
2013-03-08 20:01:00,68.3,64.0,29.97,SSE,163,4.0,-999.0,86,-99.99,,,0.00,0,weatherlink.com 1.10,2013-03-09 02:01:00,
2013-03-08 20:16:00,68.3,64.0,29.98,ESE,111,5.0,-999.0,86,-99.99,,,0.00,0,weatherlink.com 1.10,2013-03-09 02:16:00,
2013-03-08 20:31:00,68.3,64.0,29.98,South,171,9.0,-999.0,86,-99.99,,,0.00,0,weatherlink.com 1.10,2013-03-09 02:31:00,
2013-03-08 20:46:00,68.2,64.0,29.98,SE,142,4.0,-999.0,86,-99.99,,,0.00,0,weatherlink.com 1.10,2013-03-09 02:46:00,
2013-03-08 21:01:00,68.3,64.0,29.98,SW,223,6.0,-999.0,86,-99.99,,,0.00,0,weatherlink.com 1.10,2013-03-09 03:01:00,
2013-03-08 21:16:00,68.4,64.0,29.97,SE,134,9.0,-999.0,86,-99.99,,,0.00,0,weatherlink.com 1.10,2013-03-09 03:16:00,
2013-03-08 21:31:00,68.4,64.0,29.97,SE,141,10.0,-999.0,86,-99.99,,,0.00,0,weatherlink.com 1.10,2013-03-09 03:31:00,
2013-03-08 21:46:00,68.4,64.0,29.97,ESE,107,4.0,-999.0,86,-99.99,,,0.00,0,weatherlink.com 1.10,2013-03-09 03:46:00,
2013-03-08 22:01:00,68.4,64.0,29.98,SSE,152,7.0,-999.0,86,-99.99,,,0.00,0,weatherlink.com 1.10,2013-03-09 04:01:00,
2013-03-08 22:16:00,68.3,64.0,29.98,SE,142,10.0,-999.0,87,-99.99,,,0.00,0,weatherlink.com 1.10,2013-03-09 04:16:00,
2013-03-08 22:31:00,68.2,64.0,29.98,SSE,162,4.0,-999.0,87,-99.99,,,0.00,0,weatherlink.com 1.10,2013-03-09 04:31:00,
2013-03-08 22:46:00,68.1,64.0,29.97,SSE,159,3.0,-999.0,87,-99.99,,,0.00,0,weatherlink.com 1.10,2013-03-09 04:46:00,
2013-03-08 23:01:00,68.1,64.0,29.98,South,170,6.0,-999.0,87,-99.99,,,0.00,0,weatherlink.com 1.10,2013-03-09 05:01:00,
2013-03-08 23:16:00,68.0,64.0,29.97,South,170,6.0,-999.0,87,-99.99,,,0.00,0,weatherlink.com 1.10,2013-03-09 05:16:00,
2013-03-08 23:31:00,68.1,64.0,29.97,SSE,167,4.0,-999.0,87,-99.99,,,0.00,0,weatherlink.com 1.10,2013-03-09 05:31:00,
2013-03-08 23:46:00,68.1,65.0,29.96,SSE,152,3.0,-999.0,88,-99.99,,,0.00,0,weatherlink.com 1.10,2013-03-09 05:46:00,